Theta_e
337 336 336 336 335 335 335 335 335 334 334 333 333 333 333 332 331 330 329 328 327 326 326 325 324 322 320 320 321 322 322 323 323 319 316 316 316 317 316 316 316 317 318 318 319 320 321 320 314 310 310 311 311 309 307 308 309 308 306 306 306 305 304
335 336 336 335 335 334 333 333 333 333 332 332 331 332 331 330 329 328 327 326 324 323 322 322 320 319 317 318 319 320 320 320 320 320 319 318 318 318 318 317 316 316 316 316 316 316 318 320 318 316 313 313 313 310 306 307 309 307 305 305 304 304 304
334 335 335 334 334 333 332 332 332 331 330 329 329 329 329 328 327 326 325 324 322 321 319 317 316 316 316 317 317 317 318 318 318 318 317 317 317 317 317 317 317 316 316 316 316 316 317 318 318 316 314 315 315 311 306 307 307 306 305 303 303 303 303
334 335 334 333 332 332 332 331 330 329 328 327 328 327 326 326 325 324 323 321 320 319 317 314 312 313 315 316 315 315 315 315 315 315 315 315 315 315 315 315 315 315 315 315 315 315 316 317 318 316 311 312 314 310 306 306 305 305 304 303 302 303 302
335 334 333 332 332 332 331 330 329 328 327 326 326 326 325 324 323 322 321 320 318 317 316 313 312 314 315 316 315 314 314 314 314 314 314 314 314 313 313 313 313 313 313 313 312 312 313 314 316 316 312 310 312 309 305 304 304 304 304 302 302 302 303
335 334 332 331 331 331 330 329 328 327 325 324 324 324 324 322 321 321 319 317 316 315 314 314 314 315 315 315 314 314 314 314 314 314 313 313 313 312 312 312 312 312 311 311 310 311 311 311 311 313 313 312 312 308 304 304 304 304 304 303 303 303 303
335 333 332 331 330 330 329 328 327 326 324 323 324 323 322 321 320 319 317 315 314 313 313 313 313 313 312 312 312 312 313 312 312 312 312 312 312 311 311 310 310 310 310 310 309 309 309 309 309 310 312 313 312 307 303 304 304 304 304 304 303 303 303
334 332 331 330 330 329 328 328 326 325 324 323 323 322 321 320 319 317 315 314 313 313 313 314 314 313 312 312 311 311 311 311 311 311 311 311 310 310 310 310 309 309 309 309 309 309 309 309 307 308 310 313 315 311 305 304 304 304 305 305 304 304 303
333 332 331 331 330 329 328 327 325 323 323 322 321 320 320 319 317 316 315 314 312 313 314 314 314 312 311 310 310 311 311 311 310 310 310 310 310 309 308 308 308 308 309 309 309 308 308 308 307 307 308 310 313 315 311 308 306 305 305 305 305 305 304
333 332 331 330 329 329 327 325 324 323 322 321 320 320 320 318 316 316 315 313 312 313 313 313 312 310 309 310 310 311 311 311 310 310 310 310 309 309 308 308 307 307 307 308 308 308 308 307 306 306 307 307 310 313 314 312 308 306 306 306 306 305 304
332 332 331 330 329 327 326 324 323 322 321 320 320 319 319 317 316 315 314 313 313 313 313 312 311 310 310 311 311 311 311 310 310 310 309 309 308 308 307 307 307 307 307 307 307 307 307 307 306 306 306 306 308 310 311 312 310 307 306 306 306 305 305
332 331 330 329 328 326 325 324 323 322 320 320 319 318 318 316 315 314 313 312 312 312 312 312 311 311 310 310 310 310 310 310 310 309 309 309 309 308 307 307 307 307 307 307 307 306 306 306 306 306 306 306 306 308 308 310 310 308 306 306 306 305 304
331 330 329 327 326 325 325 324 323 321 320 318 318 317 317 315 314 313 312 312 312 312 312 312 311 310 310 310 310 310 310 309 308 308 308 308 308 308 308 308 308 307 307 307 307 306 306 306 306 306 306 306 306 307 307 308 309 308 306 306 306 305 304
330 329 328 326 325 324 324 323 322 320 318 317 317 317 316 315 314 313 312 312 312 312 312 311 310 310 310 310 310 309 309 308 307 307 307 307 307 307 307 307 307 307 307 307 307 306 306 306 306 306 306 306 306 306 306 307 307 307 306 306 305 304 303
329 328 326 325 324 323 322 321 319 318 317 317 317 317 316 315 314 313 312 312 312 312 311 310 310 310 310 309 309 309 309 308 307 307 307 307 307 306 307 307 307 307 306 307 307 307 306 306 306 306 305 306 306 306 306 306 306 306 306 306 305 304 303
329 327 326 324 323 323 321 319 318 317 317 317 317 316 315 315 314 312 311 311 311 311 311 311 310 310 309 309 309 309 308 308 308 308 307 307 307 306 306 307 307 307 306 306 306 306 306 306 306 306 305 305 305 305 306 305 305 305 305 305 304 303 302
328 327 325 324 323 322 320 318 317 318 318 317 317 316 315 314 313 311 311 311 311 311 310 311 310 309 309 309 309 308 308 308 307 307 307 307 307 307 307 307 307 307 306 306 306 307 306 305 305 306 305 304 304 305 305 305 304 304 305 305 304 303 302
328 327 325 323 322 321 319 319 319 318 318 317 316 315 314 314 313 311 310 310 310 310 310 310 309 309 309 309 308 308 308 307 307 307 307 307 307 306 306 306 306 307 307 306 307 307 306 305 304 305 304 304 304 304 304 304 303 303 304 304 303 302 301
327 326 324 323 322 320 319 320 319 318 317 316 316 315 314 314 312 311 310 310 310 310 310 310 309 309 308 308 308 308 308 308 307 307 306 306 306 306 306 306 306 306 307 307 307 308 307 304 303 303 303 303 303 303 303 303 302 302 303 303 303 302 301
327 324 323 322 321 320 320 320 318 317 317 316 316 315 314 313 312 311 310 310 310 310 309 309 309 308 308 308 308 308 308 307 307 306 306 306 305 305 305 305 305 306 306 305 306 308 307 305 302 300 300 301 301 302 302 302 301 301 303 303 302 301 301
326 323 322 322 321 321 321 320 318 317 317 316 315 315 314 313 311 310 310 310 309 309 309 308 308 308 308 308 308 307 307 307 306 306 306 305 305 304 304 304 304 304 303 302 304 306 306 304 300 297 297 299 300 300 300 300 300 300 302 303 302 301 300
324 323 322 322 321 321 321 320 318 317 317 316 315 314 314 312 310 310 310 309 309 309 308 308 308 308 308 308 307 307 306 306 306 306 306 305 303 302 301 300 299 298 297 298 300 302 301 299 296 295 296 296 296 297 298 299 299 300 301 303 302 300 300
323 322 322 321 321 321 320 319 318 317 316 316 315 314 313 311 310 310 309 309 309 309 308 308 308 308 308 308 307 307 306 306 306 306 305 303 302 301 298 296 294 294 294 294 295 296 295 295 295 295 295 295 295 295 295 296 298 299 301 302 301 300 300
322 322 322 321 321 320 320 319 318 317 316 315 315 314 312 311 310 309 309 309 309 308 308 308 308 308 308 307 307 306 306 306 305 305 304 302 300 297 294 292 293 293 293 294 294 294 294 295 295 296 296 296 295 295 294 294 296 297 299 301 301 300 299
322 322 321 320 320 320 319 319 318 317 316 315 314 313 312 310 310 309 309 309 309 309 308 307 307 307 307 306 306 306 305 305 305 304 303 301 298 296 295 296 297 297 297 297 297 297 297 297 298 299 299 299 299 298 296 294 294 295 297 299 300 299 298
322 322 321 320 319 319 319 318 318 317 316 315 314 312 311 310 309 309 309 309 309 309 308 307 306 306 306 306 306 306 306 305 305 304 303 302 300 300 300 301 300 300 300 300 300 301 301 300 301 301 302 301 302 302 299 295 295 295 296 298 299 299 298
322 321 321 320 319 319 319 318 317 316 315 314 314 312 311 310 310 310 309 309 309 309 307 306 305 305 305 306 306 306 306 305 305 304 304 303 303 302 301 301 300 299 300 300 301 302 302 302 302 303 303 303 303 303 301 297 296 296 296 296 298 298 298
322 321 320 319 319 318 319 318 317 316 315 314 314 313 311 310 310 310 309 309 309 308 306 305 304 304 305 306 306 306 305 305 305 305 304 303 302 302 301 301 301 301 299 298 298 300 302 302 303 304 304 304 303 304 303 299 297 297 297 297 298 298 298
322 321 320 319 318 318 319 319 318 317 316 314 314 313 311 310 310 310 310 309 309 308 306 304 304 304 305 305 305 305 305 305 305 305 304 303 303 303 303 302 302 302 300 296 294 296 299 300 302 304 304 303 303 303 302 300 298 298 298 298 299 299 299
320 320 319 319 318 319 319 319 318 317 315 314 314 313 311 310 310 310 310 309 308 307 305 304 303 304 304 305 305 305 305 304 304 304 304 303 303 303 303 302 302 302 300 297 293 294 297 300 302 303 303 303 302 301 300 299 296 297 299 299 300 300 300
319 319 319 318 318 319 319 318 318 316 315 314 313 312 311 310 310 310 310 309 308 307 304 303 303 303 303 304 304 304 304 304 304 303 303 302 302 302 302 302 302 302 301 298 294 293 296 300 302 303 303 303 302 301 300 298 295 297 299 300 300 300 300
319 319 318 318 319 319 318 318 317 316 315 314 313 312 311 310 309 309 309 308 307 306 303 302 302 302 302 303 303 303 303 303 303 303 302 302 302 302 301 302 302 302 302 300 295 293 295 299 302 303 302 301 301 300 299 296 295 297 299 299 300 300 300
319 319 318 318 319 319 318 318 317 315 315 314 313 312 311 310 309 309 308 307 307 305 301 300 301 300 301 302 303 302 303 303 303 303 302 301 302 302 300 300 302 302 302 299 295 293 294 296 300 301 300 300 300 298 296 295 296 298 299 299 300 300 300
319 319 319 319 319 319 318 317 316 315 314 313 313 312 310 309 308 308 307 307 306 303 299 298 298 298 300 302 302 302 303 303 302 302 302 301 302 302 299 297 298 300 300 297 294 293 293 294 296 297 298 298 297 294 293 295 298 299 299 299 300 300 301
320 319 319 319 319 319 318 316 315 314 314 313 312 310 309 308 308 307 306 306 305 302 299 297 297 297 299 301 301 301 303 304 303 302 302 301 301 302 301 298 297 296 295 293 292 292 293 294 294 295 296 296 295 293 294 297 298 298 299 300 300 300 301
319 319 319 319 318 317 316 315 315 314 313 311 310 308 307 307 307 306 305 305 304 303 301 298 297 296 297 300 301 302 303 303 302 302 303 303 301 301 302 301 299 297 294 292 292 292 293 293 294 294 294 295 294 294 296 297 298 299 299 300 300 301 301
318 319 318 317 316 315 315 314 313 312 311 309 308 307 307 306 306 305 305 304 304 304 302 300 297 296 296 298 301 302 302 303 302 301 303 304 302 302 302 302 301 300 297 294 292 292 292 293 293 293 294 294 294 294 296 298 299 299 300 300 301 301 301
Wind_Speed
20 17 16 16 15 13 13 13 13 12 13 12 13 12 9 9 9 9 9 7 6 6 6 7 6 5 5 6 7 8 10 11 11 13 12 10 10 11 11 12 13 13 13 11 7 3 2 3 3 4 4 4 6 11 15 11 5 6 11 14 13 13 16
19 19 19 19 17 14 13 14 14 14 13 12 13 14 11 10 11 11 8 7 8 8 7 7 7 7 7 8 9 9 11 13 12 13 13 12 11 11 10 11 12 12 12 13 12 9 6 4 3 3 6 7 3 8 15 11 4 6 9 12 14 14 16
20 21 21 20 18 16 16 17 15 14 15 15 15 14 12 11 11 11 10 9 9 8 7 7 8 9 10 10 11 11 12 13 13 14 14 14 13 13 13 13 13 13 12 12 13 13 10 6 2 2 5 7 7 6 11 8 6 8 8 13 16 15 16
23 23 21 20 19 19 19 17 15 15 15 16 15 14 13 13 13 12 10 10 10 9 8 8 9 11 12 12 13 13 14 15 15 15 15 15 14 15 15 16 16 15 13 11 12 13 11 7 4 2 4 4 7 8 5 6 9 9 9 14 16 15 18
25 22 20 20 21 22 20 17 16 15 14 16 16 15 14 14 14 12 11 11 11 11 10 9 10 11 11 13 14 16 16 17 17 16 16 15 15 16 16 16 15 15 14 12 11 12 11 10 8 5 8 9 4 9 8 9 12 10 10 15 16 16 18
24 21 19 20 22 22 21 19 17 15 16 17 17 16 15 14 14 13 13 13 12 12 11 11 11 11 11 14 15 17 18 17 17 17 17 16 15 16 16 15 15 15 14 13 12 13 12 12 13 9 9 10 4 6 11 13 13 11 11 15 16 17 18
25 22 19 20 21 21 20 20 18 18 19 18 16 16 15 14 13 13 13 14 13 13 12 12 11 11 13 15 16 18 18 18 18 18 17 17 16 16 16 16 16 15 14 14 14 14 13 14 14 11 11 11 6 7 12 13 14 13 12 13 15 17 19
25 22 20 20 21 21 21 19 18 19 20 17 15 16 15 14 13 13 13 13 14 14 13 12 12 12 14 16 17 18 18 18 18 18 18 17 17 16 16 15 16 15 15 14 14 14 13 14 14 13 10 7 4 6 10 11 13 14 15 13 13 17 20
23 21 20 21 22 22 21 20 20 20 18 16 16 17 15 14 14 14 13 13 13 13 13 12 12 13 15 17 18 18 18 17 17 17 17 17 17 16 16 15 16 15 14 13 13 14 14 14 14 13 12 9 6 2 5 7 8 10 14 14 13 16 20
21 21 22 22 21 20 21 21 21 21 18 17 18 18 16 15 15 15 14 13 13 13 12 12 13 15 17 18 18 18 17 17 17 16 16 16 16 16 15 15 16 15 14 13 13 14 14 14 13 13 13 13 10 5 2 3 4 7 12 14 14 17 19
20 22 23 21 20 21 22 22 22 21 20 19 19 18 17 16 16 15 14 14 14 13 13 13 14 16 17 17 17 17 17 16 16 16 15 16 16 16 16 16 16 15 13 13 14 14 14 12 12 11 11 12 13 10 6 3 3 9 13 14 16 18 19
18 21 23 21 22 24 23 22 22 22 22 21 20 18 17 17 16 15 15 15 15 14 14 14 15 16 17 18 17 16 16 16 16 16 15 15 15 15 15 15 14 13 11 12 13 13 13 12 10 10 10 11 13 12 11 7 3 8 14 15 16 18 19
17 20 22 22 24 25 23 21 21 22 23 21 20 18 18 18 17 16 16 15 15 14 15 15 15 17 17 17 17 16 15 15 16 16 15 14 14 13 13 13 11 10 10 10 11 11 10 10 9 9 9 10 12 12 13 12 6 7 13 15 16 17 18
19 19 20 23 26 24 22 21 21 22 22 21 20 19 17 17 16 16 15 15 15 15 15 15 16 16 16 16 16 16 15 15 16 16 15 14 13 13 13 12 11 10 10 10 10 9 8 7 7 8 9 10 11 12 12 12 9 8 12 14 15 16 17
20 18 20 24 25 23 22 21 21 22 22 21 19 17 17 17 16 15 16 15 15 15 15 16 15 15 16 17 16 15 14 15 15 15 14 14 13 13 12 11 11 10 11 10 10 8 7 7 7 8 9 10 11 12 11 11 9 8 11 13 14 15 16
21 20 22 24 24 23 22 21 21 20 19 19 17 17 17 17 16 16 16 16 15 16 15 15 15 16 17 17 16 15 14 15 15 14 14 14 13 13 12 11 10 10 10 9 9 8 7 7 7 8 9 10 11 11 10 10 10 9 10 12 13 15 17
23 23 23 24 24 23 22 21 20 18 18 18 17 17 18 17 16 16 17 16 16 16 16 15 16 16 16 15 15 15 15 15 14 14 14 13 12 12 11 10 10 9 9 9 8 8 7 8 8 9 9 10 11 11 10 9 9 9 10 11 12 15 17
25 24 24 25 25 24 23 21 19 18 19 18 17 18 18 17 16 17 17 17 17 17 16 16 17 16 16 15 16 16 15 15 14 14 14 13 12 11 10 10 9 8 8 8 7 7 7 8 8 9 10 11 10 10 10 10 10 10 10 10 12 14 16
26 24 25 27 27 25 23 21 19 19 19 19 18 18 18 17 17 17 18 18 18 17 17 17 17 17 17 16 16 15 15 15 15 14 14 13 12 11 10 10 9 8 7 7 6 5 6 7 8 9 10 10 10 10 11 11 11 11 10 10 12 14 16
25 25 28 30 28 25 23 21 20 19 19 20 19 19 18 17 17 18 18 18 18 18 18 18 18 18 17 17 16 16 16 15 15 14 14 13 12 11 10 10 9 9 8 7 6 5 6 7 7 7 8 9 10 10 11 11 12 12 12 11 11 13 15
24 26 30 31 28 24 22 21 20 20 21 20 19 19 18 18 18 18 18 19 19 19 19 19 19 18 18 17 17 17 17 16 16 15 14 13 12 11 10 10 10 9 8 7 7 7 7 7 7 8 9 9 9 9 9 11 12 13 13 11 11 12 14
25 28 31 30 27 24 22 21 21 21 22 21 19 18 18 18 19 19 19 19 19 20 19 19 19 19 18 18 18 17 17 16 16 16 15 13 12 11 10 11 11 10 10 9 9 8 7 7 9 10 11 11 11 10 9 9 10 12 13 12 12 12 13
26 31 32 29 26 24 22 21 21 21 21 20 19 18 18 19 19 19 20 20 20 20 19 19 20 19 19 19 18 17 17 16 16 16 15 14 12 11 12 13 14 13 13 12 11 10 9 9 10 11 11 11 11 11 10 9 9 10 11 11 12 13 13
28 32 31 28 26 24 22 22 21 20 20 20 19 19 19 19 19 20 21 21 20 20 19 20 21 20 19 19 18 18 17 17 16 15 15 14 13 13 15 16 15 14 13 12 10 9 9 9 9 9 10 11 11 11 10 10 9 9 9 10 12 13 12
31 31 29 27 26 24 22 22 21 20 20 20 19 19 19 19 20 20 21 21 20 19 19 22 22 21 21 19 18 18 17 17 16 15 15 13 13 14 14 13 12 11 10 9 8 6 6 6 5 5 5 5 7 8 9 9 9 9 9 8 11 12 12
29 28 28 27 26 24 23 22 21 20 20 20 19 19 18 19 20 20 21 21 19 18 21 23 24 23 22 21 19 18 17 16 16 15 14 13 13 13 12 11 10 8 8 7 4 2 2 2 2 3 4 3 3 3 5 9 9 9 9 8 8 10 11
27 28 28 27 26 25 23 22 21 20 20 20 19 19 18 19 19 20 21 20 17 18 22 24 25 24 23 21 20 18 17 16 15 13 13 13 13 12 11 10 9 8 8 8 7 7 7 6 7 8 9 7 6 4 1 6 8 8 8 8 7 9 10
26 28 28 27 27 26 23 23 22 21 21 20 18 18 18 19 19 19 20 19 17 19 23 26 26 25 23 22 20 18 17 17 17 16 15 14 13 12 10 10 9 8 8 8 8 10 10 8 7 7 9 8 7 6 4 2 7 8 9 9 8 9 10
26 28 28 28 28 27 24 23 22 22 21 20 19 17 17 18 19 19 19 18 17 20 24 27 27 27 25 22 20 19 19 19 18 17 17 16 14 12 11 10 10 9 9 8 7 9 9 7 5 4 5 4 3 3 2 2 7 9 10 10 9 11 12
28 29 29 28 29 27 25 23 22 23 22 20 19 18 17 17 18 19 19 18 18 20 25 28 29 29 26 23 21 20 19 18 17 16 16 15 14 12 11 11 10 9 9 8 7 8 8 6 3 3 3 2 2 1 1 4 9 9 9 11 13 13 11
31 32 29 29 29 28 25 23 22 22 22 20 19 18 17 16 17 18 18 18 17 19 25 30 31 30 28 24 22 20 17 16 16 15 15 15 13 14 14 12 11 10 10 9 8 8 9 6 2 2 2 3 3 1 2 7 9 7 7 11 14 13 10
33 32 30 29 29 28 25 23 21 21 20 19 18 19 17 16 16 17 17 17 15 18 26 31 31 31 30 25 22 20 16 15 16 15 15 15 13 13 15 14 13 12 10 9 9 9 9 7 3 1 1 3 4 3 5 9 8 6 8 11 13 12 10
30 30 30 29 28 26 24 22 23 22 20 18 18 19 18 17 16 16 16 15 13 17 25 30 31 32 30 25 23 21 17 16 17 15 15 15 13 12 14 15 17 15 11 10 10 10 10 9 7 5 2 2 4 4 7 8 6 6 11 14 13 11 9
27 27 28 28 26 24 23 23 24 23 20 18 19 20 20 19 19 18 18 17 16 18 25 29 30 32 30 25 24 22 16 13 16 16 15 15 14 12 12 15 19 18 14 11 11 10 10 9 9 8 6 5 4 5 7 6 5 7 12 14 11 9 8
24 24 26 27 26 24 23 24 25 23 20 19 21 21 21 22 21 18 17 17 17 20 25 29 30 31 31 26 24 23 16 10 13 16 15 14 15 14 14 14 17 17 15 13 12 11 10 10 9 10 8 6 5 5 6 6 7 9 12 12 9 8 8
25 26 27 27 26 25 24 24 24 23 20 20 22 22 22 21 19 16 15 15 17 18 22 27 29 30 31 28 25 23 17 10 11 13 10 9 11 15 17 18 16 15 14 13 12 12 11 11 10 10 9 7 5 5 5 7 9 10 11 10 8 7 8
28 28 26 25 25 24 24 24 23 23 21 22 22 22 20 19 17 16 15 16 17 17 18 23 28 29 30 30 27 24 18 12 11 11 6 2 4 8 15 20 19 16 13 12 11 12 11 11 11 10 9 7 7 6 7 9 11 12 11 10 7 7 8
Wind_Direction
163 160 161 157 153 156 157 146 142 144 136 128 131 131 129 129 130 126 122 126 133 123 123 130 122 121 128 120 118 122 118 107 102 102 95 88 79 69 69 70 72 73 70 69 62 65 124 151 159 152 151 122 69 47 40 24 11 38 18 9 17 13 5
155 149 153 152 153 158 156 152 151 150 145 139 138 137 134 132 132 130 135 144 139 131 131 132 128 120 115 114 116 121 120 110 105 105 97 86 77 71 69 68 69 69 64 57 48 40 48 98 152 178 174 162 119 45 35 23 24 38 20 19 24 15 11
155 146 148 151 154 155 154 155 155 153 151 148 142 138 134 131 134 138 144 146 137 132 127 124 130 122 108 106 109 113 117 113 108 105 99 89 81 77 74 70 64 58 54 46 35 29 33 48 62 143 168 172 158 79 30 24 44 42 34 31 27 20 18
160 154 152 153 156 157 157 159 159 155 152 149 141 135 133 134 139 144 147 142 131 123 117 115 119 115 107 104 106 108 108 105 102 100 96 91 87 84 79 75 70 62 59 53 36 28 30 24 1 27 30 36 129 120 55 41 49 44 47 38 28 22 21
161 160 157 157 160 161 160 159 160 158 152 146 140 135 137 141 144 146 142 135 128 120 114 111 110 110 108 107 107 106 104 102 101 99 95 91 89 86 82 79 77 74 67 62 52 44 40 29 12 13 17 13 81 119 97 74 52 37 49 45 31 23 21
166 170 164 160 163 163 161 159 159 158 151 145 143 141 140 143 147 147 140 133 127 122 120 118 116 117 117 115 112 108 105 104 103 101 98 95 93 90 87 84 82 79 73 66 63 56 50 47 34 18 7 352 338 98 79 70 57 36 39 47 35 23 20
171 175 167 163 165 163 163 163 161 158 152 148 149 147 143 146 150 146 137 129 124 121 121 120 116 118 120 117 114 110 106 105 105 103 99 97 96 94 91 89 83 78 75 72 70 63 55 54 44 25 8 343 323 80 69 56 57 43 25 33 31 22 16
170 171 166 166 165 164 164 162 160 156 154 152 149 146 144 147 146 137 131 126 125 123 121 121 120 121 123 120 117 114 109 108 106 103 100 97 96 94 92 91 87 81 76 73 71 68 62 57 49 36 27 357 328 89 79 53 52 43 22 18 18 16 12
166 163 163 165 164 165 164 158 155 153 151 148 142 141 145 144 135 128 126 125 127 126 123 125 126 127 125 120 117 113 109 108 106 102 101 98 96 95 93 90 87 82 80 77 72 68 65 60 53 43 39 29 358 32 86 56 49 38 21 14 6 6 7
163 161 162 162 163 164 161 156 153 149 146 141 139 143 145 139 131 128 127 127 127 126 126 130 132 129 125 119 117 114 112 111 108 104 103 100 98 97 96 92 88 83 80 78 72 69 67 59 52 48 42 34 20 12 27 42 60 43 20 12 5 359 359
163 163 162 161 161 161 158 157 155 150 147 145 146 150 145 136 133 133 133 132 131 129 129 133 133 131 127 122 120 118 116 116 112 109 105 102 100 98 96 92 88 84 79 75 69 65 66 61 53 51 47 41 35 29 8 348 67 49 22 10 5 358 355
161 161 163 164 163 162 159 159 157 152 152 153 154 153 145 139 138 139 139 136 134 135 135 136 137 134 130 126 123 120 120 120 116 113 109 105 104 101 99 93 87 84 80 76 71 63 60 60 57 54 53 49 42 35 21 11 39 35 17 6 0 358 357
158 160 166 167 165 163 161 161 160 159 159 158 157 153 148 146 144 142 141 139 138 141 141 140 140 137 132 128 126 124 124 123 118 115 111 108 106 104 102 98 94 91 86 78 72 67 61 55 55 56 57 54 46 40 35 30 24 8 10 4 356 357 357
155 159 165 166 163 161 161 162 163 165 163 160 156 153 150 149 146 143 142 142 144 145 145 144 142 139 135 132 130 128 127 125 121 117 114 110 107 105 103 99 94 91 92 86 76 72 66 59 57 56 55 53 47 41 37 33 21 358 360 359 355 358 357
156 161 163 163 162 159 160 163 163 163 162 159 155 152 150 148 146 145 144 146 149 149 149 147 145 142 138 135 132 131 131 129 124 121 118 115 112 111 108 103 96 90 86 83 77 71 62 58 59 55 53 51 44 40 35 29 17 359 350 350 355 0 358
157 159 159 159 159 159 162 163 161 160 159 158 156 153 152 149 148 149 148 149 152 152 151 150 148 145 140 137 136 136 136 132 128 125 121 118 115 114 111 106 100 94 87 82 78 73 62 57 56 54 52 47 40 37 32 23 13 0 345 342 356 3 359
157 158 157 158 158 158 159 158 157 159 158 157 156 155 154 151 151 151 152 154 156 155 154 152 149 146 143 141 140 139 137 133 130 128 124 122 119 116 114 109 101 95 93 89 82 74 67 61 55 52 50 45 39 31 23 19 10 360 345 341 359 6 360
159 159 159 160 158 156 155 154 157 159 157 156 157 156 156 155 155 156 157 159 159 157 157 154 151 149 147 145 142 140 139 136 134 132 127 125 123 120 117 112 105 101 100 95 88 78 67 60 55 51 48 43 37 27 19 16 8 0 352 352 5 6 359
161 161 160 159 157 155 154 154 157 160 159 158 159 159 159 159 160 160 162 162 161 159 158 156 155 152 148 147 145 144 143 140 137 133 128 125 124 122 118 111 107 106 106 104 98 87 72 62 53 51 51 45 38 29 20 15 10 2 357 3 13 6 359
162 162 162 159 155 154 154 155 158 161 161 161 161 161 163 163 163 164 165 164 162 161 159 157 156 153 151 151 150 148 145 140 136 132 129 127 126 124 122 122 125 128 131 136 138 131 106 80 59 57 63 56 46 35 24 17 12 4 359 9 17 6 358
162 163 162 158 155 153 155 157 160 162 163 163 163 164 166 166 165 167 166 165 164 162 161 159 158 155 154 154 152 149 146 142 140 136 133 131 129 131 137 143 145 145 145 148 150 143 125 103 86 77 75 70 60 49 34 22 16 7 1 8 16 7 358
162 163 160 157 156 156 156 158 162 165 165 163 165 168 169 167 168 168 166 165 164 163 162 161 161 159 158 156 153 151 149 147 144 140 136 134 132 138 149 148 140 133 129 127 128 130 123 107 95 83 75 73 68 61 49 32 21 10 2 6 13 5 359
162 162 159 156 157 157 157 161 163 165 165 164 168 171 169 169 171 169 167 166 164 163 164 165 164 163 160 158 155 153 152 150 146 144 141 138 139 146 148 139 132 128 123 119 118 118 112 101 93 84 77 72 65 61 57 45 32 15 3 3 6 5 3
161 161 159 158 159 157 159 163 163 163 164 166 170 172 170 172 172 170 169 166 164 166 169 168 166 163 160 158 157 155 153 151 149 147 144 144 147 149 143 137 133 129 123 118 113 110 106 98 90 82 75 67 60 54 50 47 43 28 14 3 358 2 6
160 160 159 161 162 159 160 163 162 162 166 169 171 171 172 174 173 171 170 166 166 171 172 170 168 163 160 159 158 156 154 153 152 150 149 151 152 147 141 138 137 135 131 125 116 110 105 97 81 63 53 48 44 44 41 42 44 37 27 10 353 354 359
159 160 161 163 165 163 161 162 162 164 168 169 170 171 175 176 173 173 170 167 170 174 173 172 169 164 162 161 158 156 157 155 153 151 153 156 156 152 148 149 153 157 157 152 154 196 229 264 298 313 311 307 327 7 30 33 36 33 26 13 352 342 341
161 162 163 165 166 165 163 162 163 166 168 168 169 172 176 176 175 175 172 169 173 175 174 174 171 167 165 163 158 155 155 153 152 156 161 161 161 162 162 163 165 164 169 182 202 213 224 248 265 275 277 274 273 265 310 29 32 27 15 4 346 332 327
164 165 166 167 168 168 165 163 165 169 169 169 172 175 178 178 176 176 175 173 174 176 177 178 175 170 167 164 158 154 155 159 159 162 164 162 163 168 171 171 170 173 188 203 208 206 214 227 236 259 273 270 266 251 229 31 20 7 357 349 338 329 324
166 168 169 170 171 171 168 167 170 173 171 172 176 178 179 180 179 177 177 177 177 177 179 180 178 173 169 165 159 156 161 166 164 162 161 162 165 170 171 170 172 187 206 209 201 200 206 210 217 268 290 272 269 254 203 6 346 343 344 335 324 321 318
165 167 169 171 173 172 170 170 174 175 173 174 178 179 178 181 182 180 180 180 180 180 181 182 182 177 171 167 162 159 162 164 163 162 162 163 166 169 171 172 174 194 216 213 201 195 190 191 222 304 315 276 288 275 153 334 330 335 333 315 311 317 318
169 168 171 172 172 171 170 173 175 175 174 176 178 179 179 181 183 185 184 184 186 186 183 183 183 180 175 170 164 160 161 162 161 164 167 166 168 176 183 184 180 194 215 218 209 200 193 196 226 346 321 290 312 330 307 320 327 336 326 308 310 320 328
170 169 171 173 172 170 171 174 175 174 176 179 178 179 182 183 184 186 185 182 186 191 187 184 185 183 179 174 167 161 163 167 167 170 172 169 173 188 195 193 190 197 210 214 212 208 202 205 212 197 294 306 315 308 309 319 327 329 320 313 315 321 332
172 171 171 171 170 171 172 174 174 175 178 179 179 181 185 184 181 180 178 174 182 195 191 186 186 187 183 177 170 165 164 171 176 177 177 176 181 195 203 201 200 204 211 212 213 213 210 213 220 217 224 284 284 285 305 320 330 323 313 314 320 327 336
171 172 170 167 167 171 175 173 171 172 178 182 182 181 180 178 175 172 174 178 186 195 194 189 188 189 184 177 174 171 167 171 178 181 184 185 186 194 205 207 206 209 217 220 215 213 216 220 224 227 232 246 267 290 309 316 327 328 318 318 327 335 339
166 165 166 167 168 170 171 169 168 172 179 181 178 173 169 170 169 166 171 182 187 192 196 195 192 190 186 181 178 177 172 166 174 182 188 192 196 202 208 210 210 212 215 217 216 215 220 223 226 234 241 244 258 285 300 299 302 314 317 320 327 332 334
166 163 164 166 166 163 162 164 167 173 176 172 166 164 163 165 165 165 173 184 188 194 201 201 196 193 189 185 184 186 183 171 171 176 177 187 204 210 209 208 210 208 206 211 217 218 222 227 231 240 247 246 256 275 287 294 301 309 311 310 317 328 335
167 163 161 161 158 156 158 161 164 169 170 165 160 160 164 168 171 175 181 186 189 195 203 204 200 197 193 190 190 193 192 186 182 176 156 147 221 215 205 204 203 198 199 210 218 221 226 231 235 244 247 247 258 265 271 286 298 305 308 309 319 330 332